Powrót do katalogu

FENGYUN 1C DEB

AktywnySSO
NORAD 30303·DEBRIS·🇨🇳 China

Wystrzelony May 10, 1999 z Taiyuan Satellite Launch Center

Loading…

Następne Przeloty (najbliższe 24 godziny)

TLE

ŚwieżeSource: Space-Track

Epoka: Sep 14, 2026, 05:02 UTC

1 30303U 99025ZQ  26257.21022641  .00003554  00000-0  13931-2 0  9990
2 30303  99.0116 348.0088 0075144 206.4817 153.2515 14.28529962  8869

Śledź FENGYUN 1C DEB w czasie rzeczywistym z AllMySat

Download on the App Store